Date String (YYYY-MM-DD hh:mm:ss) UTC,Instrument flags,Ambient pressure (hPa),Sample flow (lpm),Bypass flow (lpm),Sample temperature (°C),Ambient temperature (°C),ASC tube jacket temperature (°C),LED temperature (°C),Box temperature (°C),Sample RH (%),Span deviation,Mass concentration (μg/m³),Mass concentration (μg/m³),Mass concentration (μg/m³)
DateTimeUTC,F1_M11,P_M11,Q1_M11,Q2_M11,T1_M11,T2_M11,T3_M11,T4_M11,T5_M11,U1_M11,ZSPAN_M11,X0_M11,X2_M11,X1_M11
2022-12-25 17:00:00,,0825.1,4.96,0.00,22.3,22.6,00.0,31.0,24.3,15.3,0000.0,0001.55,0000.42,0000.29
2022-12-25 17:01:00,,0825.2,4.99,0.00,22.3,22.5,00.0,31.1,24.3,15.3,0000.0,0001.53,0000.41,0000.28
2022-12-25 17:02:00,,0825.2,5.02,0.00,22.4,22.1,00.0,31.1,24.2,15.3,0000.0,0001.54,0000.41,0000.28
2022-12-25 17:03:00,,0825.3,5.01,0.00,22.4,21.8,00.0,31.1,24.2,15.3,0000.0,0001.54,0000.40,0000.27
2022-12-25 17:04:00,,0825.1,4.99,0.00,22.4,21.5,00.0,31.1,24.1,15.3,0000.0,0000.94,0000.38,0000.27
2022-12-25 17:05:00,,0825.2,5.00,0.00,22.3,21.3,00.0,31.1,24.0,15.2,0000.0,0000.60,0000.37,0000.26
2022-12-25 17:06:00,,0825.4,5.00,0.00,22.3,21.1,00.0,31.1,24.0,15.0,0000.0,0000.50,0000.34,0000.26
2022-12-25 17:07:00,,0825.4,5.03,0.00,22.3,21.0,00.0,31.1,23.9,15.1,0000.0,0000.49,0000.33,0000.25
2022-12-25 17:08:00,,0825.2,5.03,0.00,22.3,20.9,00.0,31.1,23.9,15.2,0000.0,0000.59,0000.34,0000.24
2022-12-25 17:09:00,,0825.1,4.97,0.00,22.3,20.8,00.0,31.1,23.9,15.4,0000.0,0000.62,0000.33,0000.24
2022-12-25 17:10:00,,0825.2,4.98,0.00,22.2,20.7,00.0,31.1,23.9,15.2,0000.0,0000.60,0000.30,0000.23
2022-12-25 17:11:00,,0825.3,4.99,0.00,22.2,20.7,00.0,31.1,23.8,15.0,0000.0,0000.72,0000.30,0000.22
2022-12-25 17:12:00,,0825.2,5.03,0.00,22.2,20.6,00.0,31.1,23.8,15.2,0000.0,0000.73,0000.30,0000.23
2022-12-25 17:13:00,,0825.2,5.04,0.00,22.1,20.6,00.0,31.1,23.8,15.5,0000.0,0000.68,0000.29,0000.22
2022-12-25 17:14:00,,0825.4,4.99,0.00,22.1,20.6,00.0,31.0,23.7,15.3,0000.0,0000.68,0000.29,0000.23
2022-12-25 17:15:00,,0825.3,4.98,0.00,22.1,20.5,00.0,31.0,23.7,15.2,0000.0,0000.69,0000.29,0000.23
2022-12-25 17:16:00,,0825.2,4.99,0.00,22.1,20.5,00.0,31.0,23.7,15.4,0000.0,0000.72,0000.31,0000.23
2022-12-25 17:17:00,,0825.1,5.01,0.00,22.0,20.5,00.0,31.0,23.7,15.5,0000.0,0000.75,0000.32,0000.23
2022-12-25 17:18:00,,0825.1,5.03,0.00,22.0,20.5,00.0,31.0,23.7,15.5,0000.0,0000.75,0000.32,0000.23
2022-12-25 17:19:00,,0825.0,4.98,0.00,22.0,20.4,00.0,31.0,23.6,15.3,0000.0,0000.70,0000.31,0000.23
2022-12-25 17:20:00,,0825.3,4.98,0.00,22.0,20.3,00.0,31.0,23.6,15.0,0000.0,0000.64,0000.31,0000.23
2022-12-25 17:21:00,,0825.2,4.98,0.00,22.0,20.4,00.0,30.9,23.6,14.7,0000.0,0000.61,0000.31,0000.23
2022-12-25 17:22:00,,0825.0,5.01,0.00,22.0,20.9,00.0,30.9,23.7,14.9,0000.0,0000.49,0000.30,0000.23
2022-12-25 17:23:00,,0825.0,5.03,0.00,22.1,22.0,00.0,30.9,24.0,14.8,0000.0,0000.45,0000.29,0000.23
2022-12-25 17:24:00,,0824.8,4.97,0.00,22.2,22.5,00.0,30.9,24.2,15.1,0000.0,0000.52,0000.32,0000.23
2022-12-25 17:25:00,,0824.2,4.99,0.00,22.3,22.1,00.0,31.0,24.2,15.2,0000.0,0000.70,0000.33,0000.23
2022-12-25 17:26:00,,0824.7,5.03,0.00,22.3,21.8,00.0,31.0,24.1,14.9,0000.0,0001.37,0000.37,0000.23
2022-12-25 17:27:00,,0824.7,5.03,0.00,22.3,21.5,00.0,31.0,24.1,15.1,0000.0,0001.84,0000.38,0000.22
2022-12-25 17:28:00,,0824.6,4.99,0.00,22.2,21.2,00.0,31.0,24.0,15.3,0000.0,0001.82,0000.38,0000.22
2022-12-25 17:29:00,,0824.4,4.97,0.00,22.2,21.0,00.0,31.0,23.9,15.4,0000.0,0001.99,0000.37,0000.21
2022-12-25 17:30:00,,0824.6,5.00,0.00,22.2,20.9,00.0,31.0,23.9,15.2,0000.0,0001.99,0000.36,0000.21
2022-12-25 17:31:00,,0824.6,5.03,0.00,22.2,20.7,00.0,31.0,23.8,15.1,0000.0,0001.97,0000.35,0000.21
2022-12-25 17:32:00,,0824.5,5.00,0.00,22.1,20.7,00.0,31.0,23.8,15.2,0000.0,0001.98,0000.35,0000.21
2022-12-25 17:33:00,,0824.4,4.98,0.00,22.1,20.6,00.0,31.0,23.8,15.3,0000.0,0002.00,0000.36,0000.20
2022-12-25 17:34:00,,0824.6,4.98,0.00,22.1,20.5,00.0,31.0,23.7,15.2,0000.0,0002.01,0000.36,0000.20
2022-12-25 17:35:00,,0824.9,5.03,0.00,22.1,20.4,00.0,30.9,23.6,15.1,0000.0,0001.94,0000.33,0000.20
2022-12-25 17:36:00,,0824.7,5.07,0.00,22.0,20.4,00.0,30.9,23.6,15.1,0000.0,0001.83,0000.31,0000.20
2022-12-25 17:37:00,,0824.6,4.97,0.00,22.0,20.4,00.0,30.9,23.6,15.3,0000.0,0001.21,0000.28,0000.19
2022-12-25 17:38:00,,0824.3,4.98,0.00,22.0,20.4,00.0,30.9,23.6,15.7,0000.0,0000.59,0000.24,0000.20
2022-12-25 17:39:00,,0824.6,5.02,0.00,22.0,20.8,00.0,30.9,23.7,15.4,0000.0,0000.81,0000.25,0000.20
2022-12-25 17:40:00,,0824.8,5.02,0.00,22.1,22.0,00.0,30.9,24.0,15.3,0000.0,0001.05,0000.26,0000.20
2022-12-25 17:41:00,,0824.7,4.96,0.00,22.2,22.5,00.0,30.9,24.2,15.3,0000.0,0001.04,0000.26,0000.20
2022-12-25 17:42:00,,0824.1,5.00,0.00,22.2,22.1,00.0,31.0,24.2,15.3,0000.0,0001.35,0000.27,0000.21
2022-12-25 17:43:00,,0824.4,5.03,0.00,22.3,21.7,00.0,31.0,24.1,15.1,0000.0,0001.53,0000.30,0000.21
2022-12-25 17:44:00,,0824.9,5.00,0.00,22.3,21.4,00.0,31.0,24.0,15.2,0000.0,0001.59,0000.31,0000.20
2022-12-25 17:45:00,,0824.8,4.97,0.00,22.2,21.2,00.0,31.0,24.0,15.3,0000.0,0001.58,0000.31,0000.20
2022-12-25 17:46:00,,0824.8,4.99,0.00,22.2,21.1,00.0,31.0,23.9,15.4,0000.0,0001.59,0000.31,0000.19
2022-12-25 17:47:00,,0824.6,5.03,0.00,22.2,20.9,00.0,31.0,23.9,15.5,0000.0,0001.61,0000.31,0000.19
2022-12-25 17:48:00,,0824.7,5.02,0.00,22.2,20.8,00.0,31.0,23.8,15.3,0000.0,0001.59,0000.31,0000.19
2022-12-25 17:49:00,,0824.5,4.99,0.00,22.1,20.7,00.0,31.0,23.8,15.1,0000.0,0001.62,0000.31,0000.19
2022-12-25 17:50:00,,0824.2,4.98,0.00,22.1,20.7,00.0,31.0,23.8,15.4,0000.0,0001.65,0000.33,0000.18
2022-12-25 17:51:00,,0824.3,4.98,0.00,22.1,20.6,00.0,31.0,23.8,15.5,0000.0,0001.07,0000.33,0000.18
2022-12-25 17:52:00,,0824.4,5.02,0.00,22.1,20.5,00.0,31.0,23.7,15.3,0000.0,0001.08,0000.34,0000.19
2022-12-25 17:53:00,,0824.2,5.03,0.00,22.0,20.5,00.0,31.0,23.6,15.4,0000.0,0000.89,0000.34,0000.19
2022-12-25 17:54:00,,0824.0,5.01,0.00,22.0,20.4,00.0,30.9,23.6,15.4,0000.0,0000.75,0000.35,0000.19
2022-12-25 17:55:00,,0824.2,4.97,0.00,22.0,20.9,00.0,30.9,23.7,15.3,0000.0,0000.57,0000.31,0000.19
2022-12-25 17:56:00,,0824.4,4.98,0.00,22.1,22.1,00.0,30.9,24.1,15.4,0000.0,0000.57,0000.30,0000.19
2022-12-25 17:57:00,,0824.5,5.03,0.00,22.3,22.6,00.0,30.9,24.3,15.1,0000.0,0000.59,0000.32,0000.19
2022-12-25 17:58:00,,0824.3,5.02,0.00,22.3,22.3,00.0,31.0,24.3,15.6,0000.0,0000.63,0000.34,0000.20
2022-12-25 17:59:00,,0824.3,4.97,0.00,22.3,21.9,00.0,31.0,24.2,15.2,0000.0,0000.62,0000.33,0000.20
